Date String (YYYY-MM-DD hh:mm:ss) UTC,Instrument flags,absolute air pressure of the measurement (hPa),sample flow rate (lpm),inlet stack bypass flow (lpm),air temperature of the measurement (°C),ambient temperature measured by the external sensor (°C),aerosol sample conditioner tube jacket temperature (°C),OPC LED temperature (°C),internal box temperature (°C),relative humidity of the measurement (%),span deviation,mass concentration of particles derived from Lorenz-Mie calculation of OPC scattering (μg/m³),mass concentration of particles derived from Lorenz-Mie calculation of OPC scattering (μg/m³),mass concentration of particles derived from Lorenz-Mie calculation of OPC scattering (μg/m³)
DateTimeUTC,F1_M11,P_M11,Q1_M11,Q2_M11,T1_M11,T2_M11,T3_M11,T4_M11,T5_M11,U1_M11,ZSPAN_M11,X0_M11,X2_M11,X1_M11
2023-08-04 21:00:00,SystemResetWarning,0831.1,5.01,000.00,028.6,025.1,000.0,036.7,030.1,23.1,0000.0,0004.73,0002.28,0001.83
2023-08-04 21:01:00,SystemResetWarning,0831.1,5.00,000.00,028.5,025.4,000.0,036.7,030.0,22.2,0000.0,0004.70,0002.27,0001.81
2023-08-04 21:02:00,SystemResetWarning,0831.1,4.99,000.00,028.5,025.9,000.0,036.8,030.1,21.4,0000.0,0003.52,0002.26,0001.81
2023-08-04 21:03:00,SystemResetWarning,0831.1,4.99,000.00,028.6,026.4,000.0,036.8,030.2,21.9,0000.0,0003.01,0002.22,0001.80
2023-08-04 21:04:00,SystemResetWarning,0831.1,5.00,000.00,028.6,026.8,000.0,036.8,030.3,22.6,0000.0,0002.92,0002.16,0001.80
2023-08-04 21:05:00,SystemResetWarning,0831.2,5.00,000.00,028.7,027.2,000.0,036.9,030.4,21.4,0000.0,0003.04,0002.20,0001.81
2023-08-04 21:06:00,SystemResetWarning,0831.1,5.00,000.00,028.7,026.7,000.0,036.8,030.4,22.0,0000.0,0003.55,0002.21,0001.80
2023-08-04 21:07:00,SystemResetWarning,0831.0,4.99,000.00,028.7,025.3,000.0,036.7,030.2,22.4,0000.0,0003.90,0002.28,0001.80
2023-08-04 21:08:00,SystemResetWarning,0831.0,5.00,000.00,028.6,024.9,000.0,036.7,030.1,22.7,0000.0,0004.14,0002.33,0001.81
2023-08-04 21:09:00,SystemResetWarning,0830.9,5.01,000.00,028.6,025.1,000.0,036.7,030.0,22.4,0000.0,0004.27,0002.39,0001.83
2023-08-04 21:10:00,SystemResetWarning,0830.9,5.01,000.00,028.5,025.6,000.0,036.8,030.0,22.2,0000.0,0004.47,0002.47,0001.84
2023-08-04 21:11:00,SystemResetWarning,0830.9,5.00,000.00,028.5,026.1,000.0,036.8,030.2,22.4,0000.0,0004.70,0002.55,0001.86
2023-08-04 21:12:00,SystemResetWarning,0830.9,5.00,000.00,028.6,026.5,000.0,036.8,030.3,21.5,0000.0,0004.68,0002.55,0001.87
2023-08-04 21:13:00,SystemResetWarning,0830.9,5.00,000.00,028.6,026.9,000.0,036.9,030.4,21.5,0000.0,0004.77,0002.59,0001.88
2023-08-04 21:14:00,SystemResetWarning,0830.9,5.00,000.00,028.7,027.1,000.0,036.9,030.4,20.7,0000.0,0004.94,0002.63,0001.89
2023-08-04 21:15:00,SystemResetWarning,0830.9,4.98,000.00,028.7,025.9,000.0,036.8,030.3,20.6,0000.0,0004.83,0002.59,0001.90
2023-08-04 21:16:00,SystemResetWarning,0830.9,5.01,000.00,028.6,024.8,000.0,036.7,030.2,20.2,0000.0,0004.82,0002.58,0001.90
2023-08-04 21:17:00,SystemResetWarning,0830.9,5.02,000.00,028.6,024.9,000.0,036.7,030.1,20.6,0000.0,0004.50,0002.62,0001.92
2023-08-04 21:18:00,SystemResetWarning,0830.9,4.99,000.00,028.5,025.3,000.0,036.7,030.0,21.4,0000.0,0004.32,0002.61,0001.93
2023-08-04 21:19:00,SystemResetWarning,0830.9,5.00,000.00,028.5,025.7,000.0,036.8,030.1,21.6,0000.0,0004.94,0002.62,0001.94
2023-08-04 21:20:00,SystemResetWarning,0830.9,5.00,000.00,028.5,026.2,000.0,036.8,030.2,20.9,0000.0,0005.19,0002.65,0001.95
2023-08-04 21:21:00,SystemResetWarning,0830.9,5.00,000.00,028.6,026.7,000.0,036.8,030.3,21.0,0000.0,0005.16,0002.62,0001.96
2023-08-04 21:22:00,SystemResetWarning,0830.9,5.00,000.00,028.6,027.1,000.0,036.9,030.4,21.7,0000.0,0005.07,0002.62,0001.98
2023-08-04 21:23:00,SystemResetWarning,0830.9,5.00,000.00,028.7,027.3,000.0,036.9,030.5,22.1,0000.0,0005.08,0002.63,0001.98
2023-08-04 21:24:00,SystemResetWarning,0830.9,4.99,000.00,028.7,026.1,000.0,036.8,030.4,20.9,0000.0,0005.46,0002.69,0001.99
2023-08-04 21:25:00,SystemResetWarning,0830.9,5.01,000.00,028.6,024.9,000.0,036.7,030.2,19.9,0000.0,0005.43,0002.64,0001.99
2023-08-04 21:26:00,SystemResetWarning,0830.9,5.01,000.00,028.6,024.9,000.0,036.7,030.1,20.0,0000.0,0005.99,0002.67,0001.99
2023-08-04 21:27:00,SystemResetWarning,0830.9,5.01,000.00,028.5,025.3,000.0,036.7,030.0,19.1,0000.0,0006.06,0002.68,0001.99
2023-08-04 21:28:00,SystemResetWarning,0830.8,4.99,000.00,028.5,025.8,000.0,036.8,030.1,19.1,0000.0,0006.58,0002.68,0001.99
2023-08-04 21:29:00,SystemResetWarning,0830.9,5.00,000.00,028.6,026.3,000.0,036.8,030.2,19.6,0000.0,0007.35,0002.66,0001.98
2023-08-04 21:30:00,SystemResetWarning,0830.9,5.00,000.00,028.6,026.7,000.0,036.8,030.3,18.8,0000.0,0006.94,0002.62,0001.97
2023-08-04 21:31:00,SystemResetWarning,0830.8,5.00,000.00,028.7,027.1,000.0,036.9,030.4,19.5,0000.0,0007.30,0002.60,0001.97
2023-08-04 21:32:00,SystemResetWarning,0830.8,4.99,000.00,028.7,026.8,000.0,036.9,030.4,19.3,0000.0,0007.21,0002.57,0001.96
2023-08-04 21:33:00,SystemResetWarning,0830.7,4.99,000.00,028.7,025.5,000.0,036.8,030.1,19.4,0000.0,0007.19,0002.56,0001.94
2023-08-04 21:34:00,SystemResetWarning,0830.7,5.01,000.00,028.6,025.0,000.0,036.7,030.0,18.6,0000.0,0007.27,0002.61,0001.95
2023-08-04 21:35:00,SystemResetWarning,0830.7,5.02,000.00,028.6,025.3,000.0,036.7,030.0,18.4,0000.0,0006.89,0002.55,0001.95
2023-08-04 21:36:00,SystemResetWarning,0830.7,4.99,000.00,028.5,025.6,000.0,036.8,030.1,19.2,0000.0,0007.01,0002.62,0001.96
2023-08-04 21:37:00,SystemResetWarning,0830.7,5.00,000.00,028.6,026.1,000.0,036.8,030.2,19.4,0000.0,0006.54,0002.61,0001.96
2023-08-04 21:38:00,SystemResetWarning,0830.8,5.01,000.00,028.6,026.5,000.0,036.9,030.4,18.9,0000.0,0006.42,0002.61,0001.95
2023-08-04 21:39:00,SystemResetWarning,0830.8,5.00,000.00,028.7,027.0,000.0,036.9,030.5,18.5,0000.0,0005.80,0002.62,0001.95
2023-08-04 21:40:00,SystemResetWarning,0830.7,5.00,000.00,028.7,027.2,000.0,036.9,030.5,18.1,0000.0,0004.95,0002.63,0001.94
2023-08-04 21:41:00,SystemResetWarning,0830.7,4.98,000.00,028.7,026.1,000.0,036.8,030.3,17.8,0000.0,0004.89,0002.68,0001.94
2023-08-04 21:42:00,SystemResetWarning,0830.7,5.00,000.00,028.7,024.8,000.0,036.8,030.1,18.6,0000.0,0004.65,0002.73,0001.93
2023-08-04 21:43:00,SystemResetWarning,0830.7,5.02,000.00,028.6,024.7,000.0,036.7,030.0,19.0,0000.0,0004.94,0002.79,0001.93
2023-08-04 21:44:00,SystemResetWarning,0830.7,5.00,000.00,028.6,025.1,000.0,036.7,029.9,18.9,0000.0,0005.03,0002.78,0001.93
2023-08-04 21:45:00,SystemResetWarning,0830.7,5.00,000.00,028.5,025.5,000.0,036.8,030.0,18.8,0000.0,0005.04,0002.76,0001.93
2023-08-04 21:46:00,SystemResetWarning,0830.7,5.00,000.00,028.6,026.0,000.0,036.8,030.2,19.4,0000.0,0005.29,0002.78,0001.93
2023-08-04 21:47:00,SystemResetWarning,0830.7,5.00,000.00,028.6,026.5,000.0,036.9,030.3,19.2,0000.0,0005.19,0002.74,0001.93
2023-08-04 21:48:00,SystemResetWarning,0830.8,5.00,000.00,028.7,026.9,000.0,036.9,030.4,19.4,0000.0,0005.25,0002.76,0001.92
2023-08-04 21:49:00,SystemResetWarning,0830.7,4.99,000.00,028.7,027.2,000.0,036.9,030.5,20.3,0000.0,0005.27,0002.76,0001.92
2023-08-04 21:50:00,SystemResetWarning,0830.7,4.99,000.00,028.8,027.0,000.0,036.9,030.5,20.4,0000.0,0005.15,0002.71,0001.91
2023-08-04 21:51:00,SystemResetWarning,0830.7,4.99,000.00,028.7,025.5,000.0,036.8,030.2,19.2,0000.0,0005.13,0002.67,0001.90
2023-08-04 21:52:00,SystemResetWarning,0830.6,5.01,000.00,028.7,024.8,000.0,036.7,030.0,19.6,0000.0,0004.92,0002.63,0001.90
2023-08-04 21:53:00,SystemResetWarning,0830.6,5.01,000.00,028.6,025.0,000.0,036.7,030.0,20.1,0000.0,0004.47,0002.55,0001.89
2023-08-04 21:54:00,SystemResetWarning,0830.6,5.00,000.00,028.5,025.4,000.0,036.8,030.0,19.6,0000.0,0004.27,0002.51,0001.88
2023-08-04 21:55:00,SystemResetWarning,0830.6,4.99,000.00,028.5,025.8,000.0,036.8,030.1,19.2,0000.0,0004.27,0002.52,0001.87
2023-08-04 21:56:00,SystemResetWarning,0830.6,5.00,000.00,028.6,026.3,000.0,036.9,030.2,18.6,0000.0,0004.19,0002.45,0001.84
2023-08-04 21:57:00,SystemResetWarning,0830.6,5.00,000.00,028.6,026.7,000.0,036.9,030.4,19.3,0000.0,0003.86,0002.37,0001.83
2023-08-04 21:58:00,SystemResetWarning,0830.7,5.00,000.00,028.7,027.0,000.0,036.9,030.5,19.7,0000.0,0003.85,0002.37,0001.82
2023-08-04 21:59:00,SystemResetWarning,0830.7,5.00,000.00,028.8,027.3,000.0,037.0,030.6,19.6,0000.0,0003.77,0002.37,0001.82
